TimeEDT,TemperatureF,Dew PointF,Humidity,Sea Level PressureIn,VisibilityMPH,Wind Direction,Wind SpeedMPH,Gust SpeedMPH,PrecipitationIn,Events,Conditions,WindDirDegrees,DateUTC
12:51 AM,57.9,55.0,90,30.10,9.0,NE,5.8,-,0.00,,Overcast,50,2012-10-24 04:51:00
1:51 AM,57.9,54.0,87,30.11,10.0,ENE,3.5,-,N/A,,Overcast,60,2012-10-24 05:51:00
2:51 AM,57.9,55.0,90,30.11,10.0,NNE,3.5,-,N/A,,Overcast,30,2012-10-24 06:51:00
3:51 AM,57.9,55.0,90,30.11,10.0,NE,3.5,-,N/A,,Overcast,40,2012-10-24 07:51:00
4:51 AM,57.9,55.0,90,30.12,8.0,NE,4.6,-,N/A,,Overcast,40,2012-10-24 08:51:00
5:51 AM,57.0,54.0,89,30.13,7.0,NNE,8.1,-,N/A,,Overcast,30,2012-10-24 09:51:00
6:14 AM,57.2,53.6,88,30.14,7.0,NE,8.1,-,N/A,,Overcast,40,2012-10-24 10:14:00
6:51 AM,57.0,54.0,89,30.14,7.0,NE,8.1,-,N/A,,Mostly Cloudy,40,2012-10-24 10:51:00
7:51 AM,57.0,54.0,89,30.15,6.0,NNE,4.6,-,N/A,,Mostly Cloudy,20,2012-10-24 11:51:00
8:15 AM,57.2,53.6,88,30.16,7.0,NNE,6.9,-,N/A,,Mostly Cloudy,30,2012-10-24 12:15:00
8:51 AM,57.9,54.0,87,30.16,7.0,NNE,5.8,-,0.00,Rain,Light Rain,30,2012-10-24 12:51:00
9:51 AM,57.9,55.0,90,30.15,7.0,NE,6.9,-,0.00,Rain,Light Rain,40,2012-10-24 13:51:00
10:36 AM,59.0,55.4,88,30.15,8.0,NNE,8.1,-,0.00,,Overcast,30,2012-10-24 14:36:00
10:51 AM,59.0,55.0,87,30.15,9.0,NE,6.9,-,0.00,,Overcast,50,2012-10-24 14:51:00
11:51 AM,61.0,55.0,81,30.14,10.0,NE,6.9,-,N/A,,Mostly Cloudy,40,2012-10-24 15:51:00
12:51 PM,61.0,55.0,81,30.13,10.0,NNE,4.6,-,N/A,,Overcast,30,2012-10-24 16:51:00
1:24 PM,60.8,55.4,82,30.13,10.0,NE,5.8,-,N/A,,Overcast,40,2012-10-24 17:24:00
1:51 PM,61.0,55.0,81,30.13,10.0,NE,9.2,-,N/A,,Overcast,40,2012-10-24 17:51:00
2:51 PM,60.1,54.0,80,30.12,10.0,NE,4.6,-,N/A,,Overcast,50,2012-10-24 18:51:00
3:51 PM,61.0,54.0,78,30.13,10.0,Calm,Calm,-,N/A,,Overcast,0,2012-10-24 19:51:00
4:13 PM,60.8,53.6,77,30.13,10.0,ENE,4.6,-,N/A,,Overcast,60,2012-10-24 20:13:00
4:51 PM,60.1,53.1,78,30.14,10.0,East,3.5,-,N/A,,Overcast,80,2012-10-24 20:51:00
5:51 PM,60.1,53.1,78,30.15,10.0,ENE,6.9,-,N/A,,Overcast,70,2012-10-24 21:51:00
6:51 PM,59.0,53.1,81,30.17,10.0,ESE,5.8,-,N/A,,Overcast,110,2012-10-24 22:51:00
7:51 PM,59.0,52.0,78,30.18,10.0,ESE,4.6,-,N/A,,Overcast,110,2012-10-24 23:51:00
8:51 PM,57.9,52.0,81,30.19,10.0,East,6.9,-,N/A,,Overcast,100,2012-10-25 00:51:00
9:51 PM,57.9,52.0,81,30.20,10.0,East,5.8,-,N/A,,Overcast,100,2012-10-25 01:51:00
10:51 PM,57.9,51.1,78,30.20,10.0,East,4.6,-,N/A,,Overcast,80,2012-10-25 02:51:00
11:51 PM,57.0,51.1,81,30.21,10.0,ENE,6.9,-,N/A,,Overcast,60,2012-10-25 03:51:00
11:58 PM,57.2,51.8,82,30.21,10.0,NE,6.9,-,N/A,,Overcast,50,2012-10-25 03:58:00